Date String (YYYY-MM-DD hh:mm:ss) UTC,Instrument flags,absolute air pressure of the measurement (hPa),sample flow rate (lpm),inlet stack bypass flow (lpm),air temperature of the measurement (°C),ambient temperature measured by the external sensor (°C),aerosol sample conditioner tube jacket temperature (°C),OPC LED temperature (°C),internal box temperature (°C),relative humidity of the measurement (%),span deviation,mass concentration of particles derived from Lorenz-Mie calculation of OPC scattering (μg/m³),mass concentration of particles derived from Lorenz-Mie calculation of OPC scattering (μg/m³),mass concentration of particles derived from Lorenz-Mie calculation of OPC scattering (μg/m³)
DateTimeUTC,F1_M11,P_M11,Q1_M11,Q2_M11,T1_M11,T2_M11,T3_M11,T4_M11,T5_M11,U1_M11,ZSPAN_M11,X2_M11,X0_M11,X1_M11
2024-05-06 01:00:00,SystemResetWarning,0813.5,5.00,000.00,024.3,021.4,000.0,032.7,025.1,023.9,0000.0,0005.10,0020.73,0003.52
2024-05-06 01:01:00,SystemResetWarning,0813.5,5.00,000.00,023.9,020.9,000.0,032.7,024.7,024.5,0000.0,0005.03,0020.42,0003.49
2024-05-06 01:02:00,SystemResetWarning,0813.5,5.02,000.00,023.8,021.3,000.0,032.6,024.9,024.9,0000.0,0005.05,0019.37,0003.48
2024-05-06 01:03:00,SystemResetWarning,0813.5,5.00,000.00,023.9,021.7,000.0,032.4,025.2,024.8,0000.0,0005.11,0020.03,0003.49
2024-05-06 01:04:00,SystemResetWarning,0813.5,5.00,000.00,023.9,022.2,000.0,032.4,025.4,024.5,0000.0,0005.10,0019.75,0003.49
2024-05-06 01:05:00,SystemResetWarning,0813.5,4.99,000.00,024.0,022.6,000.0,032.3,025.6,024.4,0000.0,0005.06,0018.98,0003.49
2024-05-06 01:06:00,SystemResetWarning,0813.5,5.00,000.00,024.1,022.9,000.0,032.3,025.9,024.5,0000.0,0005.11,0018.50,0003.51
2024-05-06 01:07:00,SystemResetWarning,0813.5,5.01,000.00,024.2,023.2,000.0,032.3,026.1,024.4,0000.0,0005.13,0018.40,0003.51
2024-05-06 01:08:00,SystemResetWarning,0813.5,5.00,000.00,024.3,023.5,000.0,032.3,026.2,024.3,0000.0,0005.14,0017.91,0003.52
2024-05-06 01:09:00,SystemResetWarning,0813.5,5.00,000.00,024.4,023.7,000.0,032.3,026.3,023.9,0000.0,0005.18,0019.02,0003.54
2024-05-06 01:10:00,SystemResetWarning,0813.5,5.00,000.00,024.5,023.9,000.0,032.4,026.4,023.4,0000.0,0005.20,0019.28,0003.55
2024-05-06 01:11:00,SystemResetWarning,0813.5,5.00,000.00,024.5,024.1,000.0,032.4,026.6,023.8,0000.0,0005.17,0019.39,0003.54
2024-05-06 01:12:00,SystemResetWarning,0813.5,5.00,000.00,024.6,024.3,000.0,032.5,026.6,023.4,0000.0,0005.16,0018.59,0003.55
2024-05-06 01:13:00,SystemResetWarning,0813.5,5.00,000.00,024.7,024.2,000.0,032.5,026.6,023.2,0000.0,0005.17,0019.08,0003.55
2024-05-06 01:14:00,SystemResetWarning,0813.4,4.98,000.00,024.5,022.4,000.0,032.6,025.6,023.4,0000.0,0005.15,0018.29,0003.55
2024-05-06 01:15:00,SystemResetWarning,0813.3,5.03,000.00,024.1,021.0,000.0,032.7,024.8,023.8,0000.0,0005.17,0018.52,0003.55
2024-05-06 01:16:00,SystemResetWarning,0813.3,4.99,000.00,023.9,021.3,000.0,032.6,024.9,023.8,0000.0,0005.18,0018.63,0003.56
2024-05-06 01:17:00,SystemResetWarning,0813.3,4.99,000.00,023.9,021.7,000.0,032.5,025.1,023.7,0000.0,0005.18,0018.75,0003.56
2024-05-06 01:18:00,SystemResetWarning,0813.3,5.01,000.00,023.9,022.1,000.0,032.4,025.4,023.1,0000.0,0005.19,0019.27,0003.58
2024-05-06 01:19:00,SystemResetWarning,0813.3,5.01,000.00,024.0,022.5,000.0,032.3,025.6,023.0,0000.0,0005.22,0020.02,0003.58
2024-05-06 01:20:00,SystemResetWarning,0813.3,5.00,000.00,024.1,022.9,000.0,032.3,025.8,023.2,0000.9,0005.17,0019.47,0003.57
2024-05-06 01:21:00,SystemResetWarning,0813.3,5.00,000.00,024.1,023.2,000.0,032.3,026.0,023.4,0001.2,0005.16,0018.92,0003.57
2024-05-06 01:22:00,SystemResetWarning,0813.3,4.99,000.00,024.2,023.4,000.0,032.3,026.2,023.3,0001.4,0005.23,0018.23,0003.58
2024-05-06 01:23:00,SystemResetWarning,0813.3,4.99,000.00,024.3,023.7,000.0,032.3,026.3,023.7,0001.3,0005.25,0018.03,0003.57
2024-05-06 01:24:00,SystemResetWarning,0813.3,5.00,000.00,024.4,023.8,000.0,032.4,026.4,023.7,0000.0,0005.19,0018.26,0003.55
2024-05-06 01:25:00,SystemResetWarning,0813.3,5.01,000.00,024.5,024.0,000.0,032.4,026.5,023.3,0000.0,0005.18,0018.29,0003.55
2024-05-06 01:26:00,SystemResetWarning,0813.3,5.01,000.00,024.6,024.2,000.0,032.4,026.6,023.1,0000.0,0005.13,0018.08,0003.54
2024-05-06 01:27:00,SystemResetWarning,0813.3,5.00,000.00,024.7,024.3,000.0,032.5,026.7,022.9,0000.5,0005.12,0018.48,0003.54
2024-05-06 01:28:00,SystemResetWarning,0813.3,4.99,000.00,024.8,024.1,000.0,032.6,026.5,022.8,0003.0,0005.09,0019.50,0003.54
2024-05-06 01:29:00,SystemResetWarning,0813.2,4.99,000.00,024.5,022.4,000.0,032.7,025.6,023.2,0000.0,0005.06,0020.13,0003.52
2024-05-06 01:30:00,SystemResetWarning,0813.2,5.02,000.00,024.3,022.0,000.0,032.7,025.3,022.0,0000.0,0004.99,0020.63,0003.51
2024-05-06 01:31:00,SystemResetWarning,0813.2,4.99,000.00,024.2,022.3,000.0,032.6,025.5,022.1,0000.0,0005.04,0020.31,0003.52
2024-05-06 01:32:00,SystemResetWarning,0813.2,4.99,000.00,024.2,022.7,000.0,032.6,025.7,022.5,0000.0,0005.10,0021.13,0003.51
2024-05-06 01:33:00,SystemResetWarning,0813.2,5.01,000.00,024.3,023.0,000.0,032.5,025.9,021.8,0000.0,0005.07,0021.97,0003.49
2024-05-06 01:34:00,SystemResetWarning,0813.1,5.02,000.00,024.4,023.3,000.0,032.5,026.1,021.6,0000.0,0005.08,0023.22,0003.49
2024-05-06 01:35:00,SystemResetWarning,0813.1,5.00,000.00,024.4,023.6,000.0,032.5,026.3,022.2,0000.0,0005.11,0023.25,0003.49
2024-05-06 01:36:00,SystemResetWarning,0813.2,4.99,000.00,024.5,023.8,000.0,032.5,026.3,022.1,0000.0,0005.08,0022.72,0003.50
2024-05-06 01:37:00,SystemResetWarning,0813.2,5.00,000.00,024.6,024.0,000.0,032.6,026.5,021.9,0000.0,0005.10,0023.11,0003.49
2024-05-06 01:38:00,SystemResetWarning,0813.1,5.00,000.00,024.7,024.1,000.0,032.6,026.6,021.8,0000.0,0005.15,0023.31,0003.48
2024-05-06 01:39:00,SystemResetWarning,0813.2,5.00,000.00,024.7,024.2,000.0,032.7,026.6,021.7,0000.0,0005.17,0022.12,0003.47
2024-05-06 01:40:00,SystemResetWarning,0813.2,4.99,000.00,024.6,022.6,000.0,032.8,025.7,021.9,0000.0,0005.21,0021.20,0003.47
2024-05-06 01:41:00,SystemResetWarning,0813.0,5.00,000.00,024.1,021.0,000.0,032.8,024.8,022.7,0000.0,0005.26,0020.83,0003.46
2024-05-06 01:42:00,SystemResetWarning,0813.0,5.01,000.00,023.9,021.1,000.0,032.7,024.8,023.1,0000.0,0005.23,0021.95,0003.44
2024-05-06 01:43:00,SystemResetWarning,0813.1,5.01,000.00,023.9,021.6,000.0,032.6,025.0,023.1,0000.0,0005.20,0021.44,0003.46
2024-05-06 01:44:00,SystemResetWarning,0813.1,4.98,000.00,023.9,022.0,000.0,032.5,025.3,022.8,0000.0,0005.25,0021.07,0003.48
2024-05-06 01:45:00,SystemResetWarning,0813.1,4.99,000.00,024.0,022.4,000.0,032.4,025.5,022.9,0000.0,0005.22,0019.89,0003.48
2024-05-06 01:46:00,SystemResetWarning,0813.0,5.01,000.00,024.0,022.7,000.0,032.4,025.7,022.8,0000.0,0005.22,0018.94,0003.48
2024-05-06 01:47:00,SystemResetWarning,0813.1,4.99,000.00,024.1,023.0,000.0,032.3,025.9,022.5,0000.0,0005.27,0019.77,0003.48
2024-05-06 01:48:00,SystemResetWarning,0813.1,4.99,000.00,024.2,023.3,000.0,032.3,026.1,022.5,0000.0,0005.29,0019.81,0003.49
2024-05-06 01:49:00,SystemResetWarning,0813.1,5.01,000.00,024.3,023.6,000.0,032.4,026.2,022.3,0000.0,0005.28,0020.71,0003.49
2024-05-06 01:50:00,SystemResetWarning,0813.1,5.02,000.00,024.4,023.8,000.0,032.4,026.3,022.0,0000.0,0005.25,0020.85,0003.49
2024-05-06 01:51:00,SystemResetWarning,0813.1,5.00,000.00,024.4,023.9,000.0,032.4,026.3,021.7,0000.0,0005.24,0021.62,0003.50
2024-05-06 01:52:00,SystemResetWarning,0813.1,4.98,000.00,024.5,024.1,000.0,032.5,026.5,021.4,0000.0,0005.25,0021.63,0003.50
2024-05-06 01:53:00,SystemResetWarning,0813.1,5.00,000.00,024.6,024.2,000.0,032.5,026.6,020.6,0000.0,0005.27,0020.15,0003.49
2024-05-06 01:54:00,SystemResetWarning,0813.2,5.01,000.00,024.7,024.3,000.0,032.6,026.7,021.0,0000.0,0005.23,0020.98,0003.47
2024-05-06 01:55:00,SystemResetWarning,0813.2,5.01,000.00,024.8,024.3,000.0,032.6,026.6,021.0,0000.0,0005.14,0020.64,0003.44
2024-05-06 01:56:00,SystemResetWarning,0813.1,4.98,000.00,024.6,022.6,000.0,032.7,025.6,021.7,0000.0,0005.10,0021.03,0003.45
2024-05-06 01:57:00,SystemResetWarning,0813.0,5.01,000.00,024.1,020.9,000.0,032.7,024.7,021.8,0000.0,0005.09,0022.52,0003.44
2024-05-06 01:58:00,SystemResetWarning,0813.0,5.02,000.00,023.9,021.0,000.0,032.7,024.7,022.1,0000.0,0005.10,0022.65,0003.43
2024-05-06 01:59:00,SystemResetWarning,0813.1,4.99,000.00,023.8,021.5,000.0,032.6,025.0,023.2,0000.0,0005.14,0023.07,0003.43
